Regional Weather Roundup
Issued by NWS

Home | Current Version | Previous Version | Text Only | Print | Product List | Glossary Off
Versions: 1 2 3 4 5 6 7 8 9 10 11 12 13 14 15 16 17 18 19 20 21 22 23 24 25 26 27 28 29 30 31

000
ASUS45 KBOU 291807
RWRCO

WEATHER ROUNDUP FOR COLORADO
NATIONAL WEATHER SERVICE DENVER/BOULDER CO
1200 PM MDT WED OCT 29 2014

NOTE: "FAIR" INDICATES FEW OR NO CLOUDS BELOW 12000 FEET WITH NO
SIGNIFICANT WEATHER AND/OR OBSTRUCTIONS TO VISIBILITY.

COZ001>005-013-030-031-291900-
...NORTHWEST COLORADO...

CITY           SKY/WX    TMP DP  RH WIND       PRES   REMARKS
CRAIG          SUNNY     52  20  28 N3        30.33F
HAYDEN         SUNNY     48  18  29 SE5       30.34F
MEEKER         SUNNY     51  19  28 CALM      30.34F
MOUNT WERNER   NOT AVBL
STEAMBOAT SPGS SUNNY     46  24  43 CALM      30.35F
WALDEN         SUNNY     46  18  31 S9G16     30.33S
$$

COZ006>008-011-291900-
...WEST CENTRAL VALLEYS...

CITY           SKY/WX    TMP DP  RH WIND       PRES   REMARKS
GRAND JUNCTION SUNNY     53  14  21 CALM      30.34F
MONTROSE       SUNNY     54  16  22 CALM      30.36F
EAGLE          SUNNY    N/A N/A N/A CALM      30.38F
RIFLE          SUNNY     49  12  22 CALM      30.36F
DELTA          SUNNY     53  13  20 CALM      30.35F
NUCLA          SUNNY     50  10  20 CALM      30.39F
$$

COZ017>023-064>068-291900-
...SOUTHWEST COLORADO...

CITY           SKY/WX    TMP DP  RH WIND       PRES   REMARKS
DURANGO        SUNNY     54  16  22 W5        30.35F
CORTEZ         SUNNY     59  14  17 SW3       30.34F
PAGOSA SPRINGS SUNNY     54  13  19 S5        30.38F
TELLURIDE      SUNNY     54  10  17 W9        30.45S
WOLF CREEK PAS NOT AVBL
$$

COZ009-010-012-014-032>034-037-058>063-291900-
...CENTRAL COLORADO...

CITY           SKY/WX    TMP DP  RH WIND       PRES   REMARKS
ASPEN          SUNNY     53  17  24 VRB6      30.36S
BUENA VISTA    SUNNY     55   6  14 CALM      30.31F
COPPER MTN     SUNNY     37  14  38 W24G30    30.49S
BERTHOUD PASS  FAIR      28  25  86 NW22G35   30.48R WCI  15
COTTONWOOD PAS SUNNY     50  -4  10 W12G18    30.39S
GUNNISON       SUNNY     43  10  26 CALM      30.43F
KREMMLING      SUNNY     41  19  42 CALM        N/A
LEADVILLE      SUNNY     45  13  27 NW15G23   30.41S
MONARCH PASS   SUNNY     32   9  37 W35G43    30.58S WCI  17
SALIDA         SUNNY     62   6  11 SW13G22   30.35F
SUNLIGHT       SUNNY     45  19  36 SW5       30.50R
WILKERSON PASS NOT AVBL
$$

COZ069>075-291900-
...SAN LUIS VALLEY/SANGRE DE CRISTO MOUNTAINS...

CITY           SKY/WX    TMP DP  RH WIND       PRES   REMARKS
ALAMOSA        SUNNY     51   8  17 SW3       30.37F
LA VETA PASS   SUNNY     45  10  24 S12G25    30.40R
SAGUACHE       SUNNY     54  12  19 S8        30.37F
$$

COZ035-036-038>040-291900-
...NORTHERN COLORADO FRONT RANGE...

CITY           SKY/WX    TMP DP  RH WIND       PRES   REMARKS
DENVER INTL AP MOSUNNY   66  14  13 NW10      30.16F
DMNS CITY PARK   N/A     65  13  13 W5        30.15F
AURORA         MOSUNNY   64  16  15 W6        30.18F
FRONT RANGE AP NOT AVBL
ERIE MUNI ARPT MOSUNNY   63  23  21 CALM      30.15F
BOULDER MUN AP MOSUNNY   63  21  20 NE3       30.14F
CENTENNIAL     PTSUNNY   63  11  13 CALM      30.18F
BROOMFIELD     MOSUNNY   66  19  16 SW7G18    30.18S
FORT COLLINS   MOSUNNY   57  30  35 SE5       30.16F
LONGMONT       MOSUNNY   63  29  27 NE3       30.16F
$$

COZ041-046-047-076>085-087-088-291900-
...PIKES PEAK/PALMER DIVIDE AND SOUTHERN FOOTHILLS...

CITY           SKY/WX    TMP DP  RH WIND       PRES   REMARKS
COLO. SPRINGS  MOSUNNY   62  13  14 VRB5      30.22S
A. F. ACADEMY  SUNNY     61  13  15 S8        30.22F
ELLICOTT       SUNNY     62  11  13 SW10      30.20F
FALCON         SUNNY     62  11  13 S3        30.25S
FORT CARSON    SUNNY     60  15  17 CALM      30.19F
LIMON          SUNNY     63  13  14 CALM      30.18F
MONUMENT HILL  SUNNY     61  10  13 SW5       30.23S
TRINIDAD       SUNNY     65  18  16 E8        30.20F
$$

COZ042>045-048>051-090-091-291900-
...NORTHEAST COLORADO...

CITY           SKY/WX    TMP DP  RH WIND       PRES   REMARKS
GREELEY ARPT   SUNNY     55  27  33 MISG        N/A
AKRON          SUNNY     62  21  20 SW10      30.15F
BURLINGTON     SUNNY     67  18  15 MISG      30.14F
WRAY           SUNNY     70  17  13 SW6       30.12F
STERLING       SUNNY     63  32  31 SW9       30.12F
HOLYOKE        SUNNY     72  21  15 S3        30.11F
FORT MORGAN    SUNNY     57  25  29 SW6       30.15F
$$

COZ086-089-092>099-291900-
...SOUTHEAST COLORADO...

CITY           SKY/WX    TMP DP  RH WIND       PRES   REMARKS
PUEBLO         SUNNY     61  21  21 SE3       30.16F
LA JUNTA       SUNNY     61  27  27 SW6       30.17F
LAMAR          SUNNY     62  27  26 VRB7      30.15F
SPRINGFIELD      N/A     65  28  24 VRB3      30.17F
$$



USA.gov is the U.S. government's official web portal to all federal, state and local government web resources and services.